Location: Blue Sky Observatory
(43.1153°N, 70.9036°W)
Time: 00:07:13
(UTC-04:00)

Daily predictions for brighter satellites

Satellite Brightness Start Highest point End
(mag) Time Altitude Azimuth Time Altitude Azimuth Time Altitude Azimuth
Cosmos 1943 Rocket 4.4 00:04:28 10° E 00:04:46 10° E 00:05:34 10° E
Cosmos 2058 2.8 00:05:54 72° E 00:05:54 72° E 00:10:01 10° NNE
Nadezhda 1 Rocket 4.2 00:05:57 43° SSE 00:07:51 61° E 00:14:09 10° NNE
Lacrosse 5 4.2 00:03:46 10° WNW 00:07:51 24° NNW 00:11:56 10° NNE
CZ-4 R/B 4.1 00:08:57 10° N 00:13:43 62° WNW 00:14:51 47° SW
Cosmos 1241 Rocket 4.3 00:17:26 46° SSW 00:19:25 81° ESE 00:25:42 10° NE
ALOS 2 2.5 00:20:27 73° SW 00:20:41 76° WSW 00:25:06 10° NNW
Cosmos 1500 Rocket 3.8 00:20:48 54° E 00:20:48 54° E 00:25:03 10° NNE
Cosmos 2278 Rocket 3.7 00:20:26 12° WSW 00:24:56 32° NW 00:30:01 10° N
NOSS 3-4 (A) 4.2 00:20:16 14° WSW 00:25:29 51° NW 00:31:48 10° NNE
NOSS 3-4 (C) 4.2 00:20:26 14° WSW 00:25:34 51° NW 00:31:54 10° NNE
NOSS 2-2 (E) 4.4 00:24:27 32° W 00:25:47 44° NW 00:30:11 10° NNE
Cosmos 407 Rocket 3.4 00:25:31 61° SSE 00:26:09 68° ESE 00:31:18 10° NNE
Cosmos 2074 Rocket 4.1 00:23:17 10° NNW 00:29:29 66° W 00:31:22 45° SSW
Cosmos 1809 Rocket 4.4 00:26:19 10° N 00:32:25 79° W 00:34:05 50° S
Cosmos 1441 Rocket 3.8 00:30:45 10° NNW 00:34:02 49° WNW 00:34:02 49° WNW
Cosmos 1190 Rocket 3.9 00:35:11 62° S 00:36:04 85° ESE 00:41:20 10° NNE
CENTAUR R/B 3.1 00:29:47 10° NW 00:37:47 74° WSW 00:41:25 39° SSE
ADEOS Rocket 3.1 00:34:58 10° N 00:40:46 68° WNW 00:43:06 40° SW
Cosmos 405 Rocket 3.3 00:38:17 10° NNW 00:41:21 49° WNW 00:41:21 49° WNW
USA 234 3.2 00:37:22 10° NE 00:43:55 70° SE 00:46:17 42° SSW
Cosmos 1515 Rocket 3.7 00:43:28 10° NNW 00:47:49 58° W 00:47:56 58° WSW
Cosmos 1151 Rocket 3.3 00:44:58 10° NNW 00:49:07 55° W 00:49:07 55° W
SL-27 R/B 4.5 00:47:38 10° NW 00:49:37 21° WNW 00:49:37 21° WNW
RESURS DK-1 3.4 00:50:15 36° W 00:51:01 39° WNW 00:54:56 10° NNE
Cosmos 1869 3.5 00:47:49 10° NNW 00:51:31 65° WNW 00:51:31 65° WNW
H-2A R/B 2.4 00:53:56 49° W 00:53:56 49° W 00:57:41 10° NNW
Cosmos 371 Rocket 3.2 00:49:25 10° NNW 00:54:18 82° ENE 00:54:59 65° SE
SL-24 R/B 4.2 00:50:42 10° NNE 00:55:06 77° ESE 00:55:35 68° SSE
Cosmos 2369 Rocket 2.8 00:55:50 39° SE 00:56:41 41° ESE 01:01:58 10° NE
Meteor 2-10 Rocket 3.7 00:59:17 10° NNW 01:04:17 55° W 01:05:02 50° SW
Mayak 0.5 01:03:26 10° NNW 01:06:46 24° WNW 01:07:42 22° W
Cosmos 1023 Rocket 4.3 01:06:51 64° SSW 01:07:39 87° ESE 01:12:45 10° NNE
Cosmos 2228 Rocket 4.0 01:04:24 10° NNW 01:08:31 36° W 01:08:37 36° W
Cosmos 2154 Rocket 4.3 01:04:46 10° NNW 01:10:59 57° W 01:12:48 43° SW
Cosmos 2082 Rocket 3.5 01:07:02 10° NW 01:11:37 25° WSW 01:12:02 25° WSW
deb Chang Zheng 4 3.8 01:07:42 10° N 01:12:02 60° WNW 01:12:31 56° WSW
Cosmos 2098 Rocket 4.4 01:05:12 10° N 01:12:44 72° E 01:15:41 38° SSE
Cosmos 2181 Rocket 4.0 01:13:16 47° S 01:15:15 82° E 01:21:34 10° N
ATLAS 5 CENTAUR R/B 3.7 01:14:00 12° W 01:17:24 26° NW 01:21:38 10° NNE
Cosmos 1833 Rocket 4.4 01:17:02 10° WNW 01:20:44 18° W 01:20:59 18° WSW
Cosmos 2341 Rocket 4.0 01:15:18 10° NNW 01:21:38 71° W 01:23:35 46° SSW
Cosmos 332 Rocket 4.0 01:17:24 10° NNW 01:22:11 52° WSW 01:22:27 52° WSW
Meteor 2-8 Rocket 4.4 01:25:02 47° SSW 01:26:56 77° W 01:33:08 10° N
In-Cosmos 22 Rocket 4.1 01:30:42 52° SW 01:31:55 72° W 01:37:18 10° N
Cosmos 2263 4.4 01:31:34 46° SSE 01:32:52 58° ESE 01:38:22 10° NNE
Cosmos 1825 3.8 01:32:50 24° E 01:33:12 24° E 01:36:16 10° NE
Cosmos 2218 Rocket 3.9 01:29:56 10° N 01:36:09 84° E 01:38:28 41° SSE
Cosmos 1805 Rocket 3.8 01:40:58 53° WSW 01:41:24 56° W 01:45:44 10° N
SL-8 Rocket 4.0 01:35:13 10° N 01:41:29 75° W 01:43:39 43° S
Cosmos 405 4.1 01:41:36 34° E 01:41:36 34° E 01:44:48 10° NNE
Cosmos 864 Rocket 4.5 01:37:42 10° N 01:44:01 84° E 01:46:33 39° SSE
Cosmos 1408 3.5 01:44:25 38° E 01:44:36 38° E 01:48:05 10° NNE
Cosmos 1933 3.2 01:40:43 10° NNW 01:44:44 72° W 01:44:46 72° WSW
Cosmos 1741 Rocket 4.0 01:44:36 52° S 01:45:55 79° ESE 01:51:13 10° NNE
CZ-4B R/B 2.4 01:46:58 37° ENE 01:46:58 37° ENE 01:49:53 10° N
COSMOS 2487 4.1 01:44:08 10° NW 01:46:11 25° WNW 01:46:11 25° WNW
Cosmos 1943 Rocket 2.1 01:45:58 49° SSW 01:47:30 81° ESE 01:53:06 10° NNE
Sich 1 3.0 01:49:47 60° WSW 01:50:18 66° W 01:54:41 10° N
Meteor 1-26 Rocket 4.2 01:45:20 10° N 01:51:06 81° ENE 01:53:18 39° SSE
MOS 1 Rocket 3.7 01:46:21 10° N 01:51:15 54° WNW 01:52:22 43° WSW
Cosmos 2208 Rocket 4.3 01:47:55 10° NNW 01:53:18 69° ENE 01:56:02 30° SE
Cosmos 1862 Rocket 4.3 01:49:01 10° N 01:53:23 50° ENE 01:54:57 34° SE
BREEZE-M TANK 2.4 01:55:45 60° SSE 01:55:45 60° SSE 01:58:26 10° ENE
Cosmos 1892 3.2 01:56:16 46° WNW 01:56:16 46° WNW 01:59:56 10° N
CZ-2D R/B 3.6 01:53:39 10° NE 01:58:08 27° E 02:00:48 18° SE
Timation 2 Rocket 4.3 01:51:39 10° NW 01:58:10 56° WSW 02:00:36 38° SSW
Cosmos 468 Rocket 4.2 01:56:51 10° NNW 02:01:58 67° ENE 02:04:42 28° SE
CZ-4C R/B 3.4 02:03:26 53° W 02:03:26 53° W 02:06:49 10° NNW
Cosmos 1782 3.9 02:00:13 10° N 02:03:58 38° ENE 02:05:26 27° ESE
Cosmos 1707 Rocket 4.1 02:00:35 10° NNW 02:04:44 42° W 02:05:04 41° WSW
SL-16 R/B 3.3 02:01:26 13° SE 02:06:46 49° ENE 02:12:40 10° N
Cosmos 2366 rocket 4.1 02:01:41 10° NNW 02:07:44 61° W 02:09:59 38° SSW
Meteor 2-15 Rocket 4.5 02:06:11 35° S 02:08:52 75° E 02:14:57 10° NNE
Cosmos 1633 Rocket 3.3 02:08:40 49° WSW 02:09:26 56° W 02:13:49 10° N
Cosmos 1470 Rocket 3.5 02:14:17 50° S 02:15:26 86° E 02:19:56 10° N
Meteor 2-15 4.4 02:14:33 37° SSW 02:17:06 79° W 02:23:12 10° N
H-2A R/B 3.8 02:14:09 10° NE 02:17:39 29° E 02:19:01 23° SE
Nadezhda 3 Rocket 4.1 02:15:53 31° S 02:19:07 75° E 02:25:28 10° N
CRYOSAT 2 4.4 02:22:03 43° SSW 02:23:31 63° W 02:28:23 10° N
Cosmos 304 Rocket 4.4 02:20:39 10° NW 02:25:01 36° WSW 02:25:31 35° WSW
USA 234 4.2 02:20:35 10° NE 02:26:43 44° NNW 02:32:51 10° W
Landsat 5 3.6 02:26:59 46° WSW 02:27:10 46° W 02:30:53 10° NNW
Meteor 2-3 Rocket 4.0 02:25:50 35° SW 02:28:09 59° WNW 02:33:53 10° N
Cosmos 1570 Rocket 4.2 02:24:11 10° NNW 02:29:17 52° WSW 02:30:54 38° SSW
Resurs 1-4 Rocket 2.6 02:25:26 10° NNE 02:30:39 53° E 02:33:30 26° SSE
Cosmos 1933 Rocket 3.6 02:36:28 43° SW 02:37:45 66° W 02:42:06 10° N
Cosmos 1862 4.2 02:37:06 26° SSE 02:38:50 43° E 02:42:36 10° NNE
Cosmos 2369 Rocket 3.4 02:37:37 19° WSW 02:40:48 32° NW 02:45:50 10° N
Cosmos 1689 Rocket 3.0 02:41:36 36° WNW 02:41:36 36° WNW 02:44:03 10° NNW
COSMOS 2455 3.4 02:39:10 10° NNW 02:45:08 58° NE 02:51:03 10° SE
BREEZE-M DEB (TANK) 3.0 02:42:16 20° WSW 02:46:47 88° NNW 02:49:22 10° ENE
GP-B 3.5 02:47:28 10° N 02:51:47 49° W 02:53:22 33° SW
Lacrosse 4 Rocket 1.5 02:52:46 35° SSW 02:54:35 86° ESE 02:59:04 10° NNE
CBERS-1 4.1 02:53:39 10° N 02:58:47 70° WNW 03:01:34 27° SSW
Cosmos 292 Rocket 3.7 02:54:35 10° NNW 02:59:25 79° WSW 03:03:10 17° SSE
ARIANE 5 R/B 2.9 02:55:05 10° NNE 03:00:00 56° E 03:03:29 19° S
Delta 2 Rocket 4.4 03:00:17 28° S 03:00:50 29° S 03:04:58 10° ESE
SL-08 R/B 3.3 03:00:50 25° S 03:03:31 62° W 03:08:12 10° NNW
Cosmos 2221 Rocket 4.1 03:00:29 10° N 03:04:52 58° E 03:09:10 10° SSE
Cosmos 1606 3.8 03:01:43 10° NNW 03:04:57 27° W 03:05:33 25° WSW
Cosmos 1763 Rocket 3.6 03:01:36 10° NNW 03:06:30 51° WSW 03:09:28 23° S
Cosmos 1821 Rocket 4.1 03:02:06 10° NNW 03:08:17 60° W 03:12:45 20° SSW
Cosmos 1825 3.7 03:07:41 20° W 03:08:41 22° WNW 03:11:40 10° NNW
ATLAS CENTAUR R/B 3.6 03:10:06 10° SE 03:12:14 15° ESE 03:14:27 10° ENE
Cosmos 1869 Rocket 3.5 03:10:45 24° S 03:13:18 88° WNW 03:17:41 10° N
MOZ.5/SAFIR/RUBIN 5/SL-8 3.7 03:13:25 18° S 03:16:53 68° WSW 03:21:33 10° NNW
Cosmos 1656 Rocket 4.3 03:14:34 21° SW 03:18:07 47° WNW 03:23:33 10° NNE
IRS-1C 4.3 03:14:05 10° N 03:19:22 64° WNW 03:22:56 21° SSW
Cosmos 1814 Rocket 4.5 03:17:22 10° NNW 03:22:20 42° WSW 03:25:46 18° SSW
ADEOS 4.3 03:17:38 10° NNE 03:22:42 48° E 03:27:44 10° S
Cosmos 1867 3.7 03:20:08 22° SW 03:23:44 69° NW 03:29:12 10° NNE
BREEZE-M DEB (TANK) 2.1 03:21:27 10° WNW 03:23:48 67° SSW 03:28:55 10° SE
Cosmos 540 Rocket 3.4 03:20:47 10° NNW 03:25:56 85° WSW 03:31:02 10° SSE
NPP 4.5 03:22:48 10° N 03:27:43 37° WNW 03:31:13 17° SW
BREEZE-M R/B 4.3 03:24:32 16° SSW 03:28:31 27° SSE 03:31:37 10° E
Cosmos 1943 Rocket 4.1 03:28:14 10° W 03:31:58 18° NW 03:35:44 10° N
Cosmos 1703 Rocket 4.2 03:27:58 10° NNW 03:32:02 37° W 03:34:33 20° SSW
Cosmos 1437 Rocket 3.0 03:29:54 21° SSW 03:32:27 60° WNW 03:36:33 10° N
Spot 4 Rocket 4.1 03:30:00 10° N 03:35:07 69° WNW 03:39:11 16° SSW
Cosmos 841 Rocket 3.9 03:31:02 10° NW 03:35:54 41° WSW 03:40:09 13° SSW
Cosmos 1818 4.3 03:31:35 10° NW 03:36:20 31° WSW 03:40:38 12° S
Lacrosse 5 4.1 03:32:31 10° NW 03:36:53 28° NNE 03:41:15 10° E
CZ-2D R/B 2.8 03:33:22 10° N 03:38:18 40° WNW 03:42:08 16° SW
Helios 1A Rocket 3.2 03:35:37 10° NNE 03:39:38 64° ESE 03:43:26 11° S
Cosmos 1812 3.1 03:36:58 10° N 03:40:49 64° E 03:44:40 10° SSE
ADEOS II 2.7 03:37:19 10° NNE 03:42:30 55° E 03:47:39 10° S
Cosmos 1184 Rocket 3.2 03:40:29 10° NNW 03:43:37 43° W 03:45:50 17° SSW
Okean 1-7 3.7 03:40:46 10° NNW 03:44:50 37° W 03:47:58 15° SSW
IRS-1D 4.2 03:41:29 10° N 03:46:18 41° WNW 03:50:08 15° SW
BREEZE-M DEB (TANK) 4.5 03:45:24 10° WNW 03:48:55 48° NNE 03:55:44 10° E
Meteor 1-27 Rocket 4.2 03:43:30 10° NNW 03:49:00 46° W 03:54:35 10° SSW
SL-16 R/B 3.5 03:46:32 15° SW 03:50:36 28° W 03:55:47 10° NW
Cosmos 2219 3.2 03:45:54 10° NNW 03:51:30 62° WSW 03:57:01 10° S
H-2A R/B 3.9 03:49:54 10° NNW 03:53:02 22° WNW 03:55:37 12° WSW
Okean 3 4.3 03:50:48 10° N 03:54:53 51° ENE 03:58:59 10° SSE
PSLV R/B 3.2 03:52:35 12° W 03:55:11 44° SSW 03:58:01 10° ESE
Meteor 1-4 Rocket 3.2 03:56:02 15° SW 03:58:41 39° WNW 04:02:12 10° N
Cosmos 1733 Rocket 3.0 03:57:58 10° S 04:02:17 89° W 04:06:39 10° N
Cosmos 1354 Rocket 4.1 03:58:32 12° SSW 04:03:18 64° WNW 04:08:32 10° NNE
Cosmos 1605 Rocket 4.4 03:58:35 10° NNW 04:04:20 44° W 04:10:05 10° SSW
Cosmos 1980 Rocket 4.5 04:02:45 10° SE 04:06:38 20° E 04:10:34 10° NE
Genesis I 3.2 04:02:49 10° NW 04:06:54 67° WSW 04:10:54 10° SSE
USA 229 DEB 3.9 04:00:35 10° NW 04:07:41 62° WSW 04:14:57 10° SSE
USA 229 3.9 04:00:41 10° NW 04:07:47 62° WSW 04:15:04 10° SSE
Cosmos 44 Rocket 3.5 04:03:27 10° SSW 04:08:12 74° ESE 04:13:12 10° NE
NOSS 3-1 (A) 4.5 04:00:58 10° NNW 04:08:32 71° NE 04:17:01 10° SE
GPS 2-04 Rocket1 4.4 04:06:03 11° SSW 04:08:47 19° SSE 04:11:40 10° ESE
Resurs 1-4 Rocket 3.6 04:06:05 10° NNW 04:10:05 22° WNW 04:14:05 10° WSW
SL-8 R/B 3.7 04:06:48 10° WNW 04:11:35 64° SSW 04:16:19 10° SE
Cosmos 1674 Rocket 3.6 04:08:15 10° N 04:12:35 86° ENE 04:16:54 10° S
Cosmos 2100 Rocket 4.0 04:09:15 10° N 04:15:27 88° W 04:21:40 10° S
SeaSat 1 3.9 04:12:14 10° SE 04:16:53 43° NE 04:21:33 10° NNW
Okean 1 3.9 04:13:28 10° N 04:17:23 59° E 04:21:18 10° SSE
Cosmos 1459 Rocket 4.1 04:11:34 10° N 04:17:59 90° W 04:24:21 10° S
Cosmos 1908 Rocket 4.3 04:13:46 10° S 04:18:07 55° E 04:22:28 10° NNE
Cosmos 2297 Rocket 2.3 04:14:18 10° NNW 04:19:59 90° ESE 04:25:38 10° SSE
Cosmos 192 4.5 04:15:33 10° NNW 04:20:33 85° ENE 04:25:30 10° SSE
Cosmos 2278 4.1 04:16:16 10° S 04:21:49 63° ESE 04:27:25 10° NNE
Cosmos 44 3.7 04:17:44 10° SW 04:22:19 53° NW 04:27:14 10° NNE
BREEZE M DEB (TANK) 3.3 04:20:32 10° NW 04:23:15 29° N 04:25:07 10° ENE
Cosmos 389 Rocket 3.1 04:22:09 10° SSW 04:25:37 43° WNW 04:29:07 10° N
Cosmos 2227 Rocket 2.2 04:22:31 10° NNW 04:28:11 72° WSW 04:33:48 10° SSE
ATLAS CENTAUR Rocket 3.8 04:26:50 10° SSW 04:30:26 21° SSE 04:38:29 10° ESE
COSMOS 2455 3.9 04:25:54 10° NW 04:30:37 24° WSW 04:35:20 10° SSW
